Terug naar catalogus

RASSVET-3 5

ActiefWetenschapPO
NORAD 68364·PAYLOAD·🇷🇺 Russia

Gelanceerd Mar 23, 2026 vanaf Plesetsk Cosmodrome

Loading…

Volgende Passages (komende 24 uur)

TLE

VersSource: Space-Track

Epoch: Sep 14, 2026, 21:31 UTC

1 68364U 26061E   26257.89665059  .00000661  00000-0  30621-4 0  9991
2 68364  82.2933 283.5767 0002304  69.8090 290.3391 15.18402071 27000

Volg RASSVET-3 5 in realtime met AllMySat

Download on the App Store